Location: Newark
(51.3318°N, 0.0053°E)
Time: 17:13:55
(UTC+00:00)

M-CUBED/EXP-1 PRIME - Pass Details

Date: 02 July 2022
Orbit: 422 x 631 km, 101.7° (Epoch: 17 August)

Event Time Altitude Azimuth Distance (km) Brightness Sun altitude
Exits shadow 23:43:26 - 104° (ESE) 1,931 ? -15.6°
Reaches altitude 10° 23:44:39 10° 91° (E) 1,564 ? -15.6°
Maximum altitude 23:46:41 16° 53° (NE) 1,290 ? -15.6°
Drops below altitude 10° 23:48:48 10° 15° (NNE) 1,622 ? -15.6°
Sets 23:51:30 0° 353° (N) 2,546 ? -15.6°
